Temp
17 17 16 16 15 15 14 13 14 14 14 14 14 14 13 14 14 13 13 13 13 14 14 14 14 14 14 14 15 15 15 15 15 15 15 16 16 16 16 16 16 16 15
17 17 16 16 16 15 14 14 14 14 14 14 13 13 13 13 13 13 12 12 13 13 13 14 14 13 12 13 13 14 14 14 15 15 15 15 15 15 16 16 16 16 15
17 16 16 16 16 15 14 13 13 13 13 13 13 13 13 13 13 13 12 12 12 13 12 13 13 12 11 12 12 13 13 14 14 14 14 15 15 15 15 15 15 15 15
17 16 16 16 16 15 14 14 13 13 13 13 13 12 13 13 13 13 12 12 12 12 12 12 12 12 12 12 11 12 12 13 13 14 14 14 14 15 14 15 15 15 15
17 16 16 16 16 15 15 14 14 14 13 13 12 12 13 12 13 12 12 13 13 12 11 12 12 11 11 11 11 11 12 12 12 13 13 14 14 14 14 14 14 15 15
16 16 16 16 16 15 15 14 14 13 13 13 13 13 12 12 12 12 12 12 12 12 11 11 10 11 11 11 11 11 11 12 12 12 12 13 13 13 14 14 13 14 15
16 16 15 15 15 14 15 14 14 12 12 12 11 12 12 12 12 12 11 11 11 12 11 11 10 10 10 10 11 11 10 11 11 12 11 12 12 12 13 13 13 13 14
16 15 14 14 13 12 11 12 12 12 11 11 13 13 14 14 11 10 11 10 10 10 10 10 10 9 9 9 9 10 11 11 11 11 11 11 12 12 13 13 13 13 14
14 14 14 13 13 12 11 11 11 11 13 12 11 14 14 14 15 11 10 10 9 9 9 9 8 8 8 8 9 9 10 10 11 11 11 10 10 11 12 12 12 13 13
13 13 13 13 12 11 10 10 11 11 11 12 10 9 9 10 13 14 10 10 9 9 8 8 8 8 8 8 8 8 9 9 10 10 10 10 10 10 9 10 11 12 12
12 12 12 12 12 12 10 9 9 9 9 10 11 10 8 8 7 10 12 12 8 7 7 7 7 7 7 7 7 8 9 9 9 10 10 9 9 9 9 9 10 11 12
10 11 11 11 10 9 8 6 6 6 6 6 6 7 8 9 9 8 8 8 7 7 6 6 6 7 7 7 7 7 7 8 8 9 9 9 9 9 9 8 9 9 11
7 8 8 8 6 6 6 5 5 4 4 4 3 3 3 3 3 2 3 5 6 7 7 6 6 6 6 6 7 7 7 7 8 8 8 8 9 8 8 8 8 8 9
6 7 6 6 6 7 7 6 6 5 4 2 1 1 1 0 0 0 1 2 4 6 6 6 6 5 6 6 6 6 6 6 7 7 7 8 7 7 7 7 8 8 8
5 5 5 5 5 5 5 5 5 5 4 3 3 1 1 1 1 1 1 1 2 3 5 6 6 5 5 5 5 6 6 5 6 6 7 7 7 7 7 7 7 7 7
4 4 5 4 4 3 3 3 3 3 2 2 2 2 2 2 2 2 2 2 3 4 5 5 5 5 4 4 5 5 5 5 5 5 6 6 6 6 6 7 7 7 7
4 3 3 3 2 1 0 2 3 3 3 3 2 2 2 2 2 2 2 2 3 3 4 4 4 3 3 4 4 4 4 5 5 4 4 5 5 5 6 6 6 7 7
3 3 2 2 1 1 2 2 2 3 3 2 2 2 2 2 1 1 1 1 1 2 2 3 3 3 3 3 3 3 3 4 4 4 3 3 4 4 4 5 6 6 7
2 2 1 1 2 2 2 2 2 2 2 1 0 -0 -0 -1 -0 -0 -0 -0 0 0 1 1 2 2 2 2 2 2 2 2 3 3 2 3 3 3 3 4 5 5 6
2 1 1 1 1 1 2 2 2 1 -0 -1 -1 -2 -2 -2 -2 -1 -1 -1 -1 -1 -0 -0 0 1 1 1 1 1 2 1 1 2 2 2 2 2 2 3 3 4 5
2 1 0 0 1 1 0 0 -1 -1 -2 -2 -2 -2 -3 -3 -3 -3 -3 -2 -2 -1 -1 -1 -1 -1 -0 -0 -0 0 1 1 1 1 1 1 2 2 2 2 3 3 4
0 1 1 0 -0 -1 -1 -2 -2 -2 -2 -3 -3 -3 -3 -4 -4 -4 -5 -4 -4 -3 -2 -2 -1 -1 -0 -0 -0 -1 -0 0 1 0 -0 -0 0 1 1 2 2 2 3
-1 -1 -1 -2 -2 -2 -3 -3 -4 -3 -3 -4 -4 -4 -4 -4 -4 -4 -4 -5 -5 -5 -5 -4 -3 -2 -2 -2 -1 -1 -1 -1 -0 -0 -0 -0 -0 0 1 1 1 2 2
-2 -2 -2 -3 -3 -3 -4 -5 -5 -5 -5 -5 -5 -5 -5 -4 -4 -5 -5 -4 -4 -4 -4 -4 -4 -3 -3 -2 -2 -2 -2 -1 -1 -1 -1 -1 -1 -1 -1 -0 -0 0 1
-2 -3 -3 -4 -4 -4 -6 -6 -6 -5 -5 -6 -6 -5 -5 -5 -5 -5 -5 -5 -4 -3 -3 -4 -4 -4 -4 -4 -4 -3 -3 -2 -2 -1 -1 -2 -1 -1 -1 -1 -1 -1 0
-3 -4 -5 -5 -5 -6 -6 -7 -6 -6 -6 -6 -5 -5 -5 -6 -6 -6 -5 -5 -4 -4 -4 -4 -4 -3 -4 -4 -4 -4 -4 -3 -2 -2 -1 -1 -1 -1 -1 -1 -1 -1 -1
Height
838 837 837 836 834 833 833 832 831 831 830 829 829 828 828 827 825 825 824 823 822 821 820 820 819 819 820 820 820 821 822 823 826 828 830 833 835 838 840 843 845 847 851
837 837 836 834 833 832 831 830 829 829 828 827 826 826 825 825 824 823 823 822 821 820 819 817 816 816 816 816 817 818 819 820 821 822 825 827 829 832 836 838 840 843 846
836 835 834 833 831 831 829 828 827 826 826 825 825 824 823 822 821 821 820 820 819 819 818 817 816 814 814 814 814 816 815 817 818 818 819 821 823 826 829 832 835 838 840
834 833 831 830 830 829 827 826 825 824 823 823 823 822 822 821 819 818 817 816 816 816 816 815 814 813 813 812 812 812 812 812 813 814 814 816 817 819 822 825 829 831 835
831 830 828 826 825 824 823 822 821 820 819 818 818 818 818 817 817 816 815 813 811 813 813 812 812 812 811 811 810 809 809 809 809 809 809 810 811 812 814 817 821 824 827
827 825 823 820 820 819 817 816 815 815 814 812 811 811 811 811 811 811 811 811 808 808 810 810 810 810 809 808 807 806 806 805 805 804 803 803 804 805 809 811 812 814 820
823 821 818 815 814 812 810 810 809 808 807 807 810 808 806 805 805 806 806 807 806 804 805 807 807 807 807 805 805 803 801 800 799 800 800 798 800 801 804 803 806 807 799
817 814 811 808 806 804 803 802 802 802 801 800 800 802 799 798 799 799 801 802 802 800 802 802 803 804 804 802 800 799 798 796 796 796 796 796 796 795 796 797 798 801 801
813 810 807 804 801 799 795 794 792 791 791 791 792 792 790 787 790 793 795 798 797 797 798 799 799 799 799 799 797 795 794 792 792 792 794 794 792 792 791 790 789 789 792
807 805 801 798 794 791 789 786 785 784 784 782 785 786 782 784 782 782 789 791 792 793 793 794 795 795 795 795 793 792 790 788 787 788 788 790 789 788 787 785 782 783 784
802 798 794 790 787 784 780 778 777 777 777 776 775 776 779 780 784 782 778 783 789 790 791 790 791 791 790 792 790 788 787 785 783 783 784 784 785 784 782 781 779 777 778
797 795 792 788 783 779 776 775 774 774 775 775 775 773 774 773 776 783 782 785 785 785 786 787 786 785 785 787 786 784 783 782 780 779 779 780 780 779 778 778 777 775 773
796 793 790 787 783 779 778 779 779 779 779 781 779 777 780 780 778 782 784 785 783 782 782 782 781 780 781 782 782 780 779 778 777 777 776 777 776 775 775 774 773 772 771
792 790 789 789 787 784 782 779 780 779 779 781 781 780 780 779 780 782 782 782 781 778 777 777 777 778 777 777 777 776 776 774 774 774 773 773 773 772 772 771 768 765 765
790 790 788 787 788 784 783 782 780 778 776 779 778 778 777 778 777 777 780 779 780 776 771 772 772 773 772 772 772 773 771 770 770 771 770 770 770 769 769 767 765 762 760
791 791 790 789 787 786 784 783 782 780 778 777 778 777 777 777 775 774 775 774 774 772 766 768 768 769 769 767 767 767 767 765 766 766 766 765 766 764 764 762 760 758 756
792 791 790 789 787 786 783 783 781 779 778 775 775 775 774 773 771 771 771 769 768 768 764 761 763 765 764 763 762 761 760 759 759 759 760 760 761 760 759 758 757 754 752
790 790 789 787 786 783 781 780 776 775 774 773 772 771 770 769 768 767 766 765 764 763 762 758 758 758 757 756 755 754 753 752 752 752 752 753 753 753 753 752 752 750 748
791 787 786 785 783 779 776 775 773 772 771 770 769 768 767 766 765 764 763 761 760 758 757 754 751 751 751 751 749 748 747 747 745 745 745 745 745 745 744 745 744 744 743
790 786 783 781 778 775 773 771 769 768 767 766 765 765 764 762 761 760 758 756 754 752 750 747 744 742 742 742 741 740 738 738 737 737 736 736 736 737 737 737 737 737 737
786 782 778 776 774 772 769 767 766 765 764 763 762 761 759 757 755 753 751 748 747 745 742 740 737 736 734 734 734 733 729 730 728 729 728 727 728 728 728 728 729 729 730
784 780 777 774 772 769 767 765 764 763 761 759 757 754 752 749 747 744 742 742 741 738 734 733 730 728 726 726 727 726 724 723 720 723 722 720 722 719 720 720 721 722 723
783 779 776 773 770 768 766 764 762 761 757 754 751 748 745 742 740 737 735 734 732 730 729 728 724 722 720 720 720 720 719 718 716 717 717 714 715 713 714 714 714 715 716
782 777 774 772 769 767 763 761 758 755 752 748 745 741 738 735 733 731 729 726 723 721 719 718 716 714 713 713 713 713 712 711 711 711 712 709 710 708 709 708 708 709 710
779 776 773 770 767 764 760 757 754 749 745 742 738 735 732 729 726 725 722 718 715 711 709 708 707 706 705 705 706 706 705 706 705 705 705 705 704 703 703 702 702 702 704
777 774 771 768 764 760 756 752 749 745 740 736 732 728 725 723 720 718 715 712 707 703 701 699 698 697 696 696 696 698 699 697 698 697 697 699 698 698 695 693 693 694 695
Wind_Speed
16 17 18 18 17 15 13 11 10 10 8 6 4 3 3 3 4 4 5 6 7 7 8 10 11 11 10 9 9 9 14 18 21 25 27 28 28 27 25 24 25 25 28
18 19 20 19 19 17 15 14 11 9 9 7 5 4 3 3 3 3 4 5 7 10 9 8 9 9 10 11 10 12 13 12 16 21 23 29 30 31 29 27 27 28 30
18 20 21 20 20 19 18 17 15 12 10 9 7 6 5 4 1 2 2 4 5 6 10 10 11 9 9 9 10 12 13 14 14 15 15 22 25 28 32 31 30 31 32
18 20 21 22 21 21 20 19 17 16 14 11 9 8 7 5 4 3 1 3 5 5 5 8 9 10 9 9 9 10 11 13 17 17 19 19 17 24 30 32 32 33 35
19 22 24 26 25 24 25 24 22 21 15 14 12 11 11 9 7 5 4 2 3 3 5 5 4 5 8 9 11 12 11 12 13 16 18 21 22 19 21 29 36 37 38
24 25 28 30 30 29 30 30 28 24 24 19 15 15 14 13 13 11 10 6 1 4 4 3 4 6 7 10 10 13 13 11 11 11 12 17 19 23 22 22 28 36 40
24 27 30 33 35 34 38 37 33 28 23 23 12 16 17 20 19 15 15 10 7 4 3 5 7 10 12 14 14 14 14 15 13 12 11 15 17 15 25 27 20 25 30
28 26 25 27 29 29 30 36 34 28 22 22 18 15 7 11 12 15 15 13 9 7 5 8 8 9 10 11 12 12 14 15 14 13 13 14 16 15 19 26 28 24 23
25 27 28 26 26 26 28 31 33 33 32 25 27 18 6 10 11 10 16 13 10 8 4 3 3 6 8 9 10 11 11 12 12 12 14 12 13 15 16 18 23 24 24
29 29 30 29 27 25 26 29 29 31 30 31 18 23 15 10 8 10 11 11 9 7 6 3 4 4 6 9 10 10 8 12 12 12 9 12 11 12 12 15 19 21 23
29 28 26 25 25 24 24 23 24 24 26 28 26 16 13 8 4 8 10 10 7 8 7 7 8 6 7 8 7 9 8 8 8 12 12 12 12 11 13 12 16 22 25
31 27 23 20 18 15 11 6 4 5 1 3 3 1 9 9 7 5 5 7 9 14 10 11 9 9 6 7 9 5 4 7 6 4 6 10 10 11 12 12 13 13 21
22 20 14 8 5 9 13 13 13 13 14 13 11 9 6 4 1 2 4 10 11 16 12 14 10 8 7 10 11 12 9 8 5 4 3 5 7 10 11 11 14 14 12
15 7 4 4 5 5 4 5 7 7 10 9 9 9 6 6 3 3 4 5 7 11 16 17 13 14 13 12 12 15 9 8 6 8 4 3 5 3 3 6 12 13 14
5 1 2 4 4 5 7 8 8 8 10 7 6 5 3 5 7 8 11 10 10 7 11 18 20 18 16 15 14 14 13 12 15 9 11 6 5 6 8 7 9 9 10
3 7 6 6 9 10 10 13 13 8 4 2 3 6 8 11 11 12 14 15 17 19 13 22 22 20 20 20 19 20 20 19 14 12 10 12 16 13 12 11 12 10 10
6 5 7 9 12 12 10 11 8 7 6 4 5 7 9 11 12 13 14 16 18 19 14 25 22 20 22 22 22 22 23 24 22 21 18 22 23 20 20 16 14 12 11
6 6 9 13 15 16 14 11 7 6 8 9 11 11 12 12 12 12 12 14 15 17 19 21 23 21 21 21 19 19 20 21 21 23 23 21 21 23 24 21 19 16 14
10 11 13 14 16 16 14 12 11 11 11 10 10 9 9 9 11 12 15 18 19 21 23 24 25 25 24 24 26 27 26 26 26 27 27 25 25 25 25 23 24 22 19
14 14 13 16 17 17 15 14 15 12 9 8 10 11 13 14 16 18 20 22 22 23 24 25 25 26 26 25 26 26 27 26 28 29 30 33 32 29 26 25 25 25 25
16 15 14 14 15 16 12 12 9 7 9 12 15 16 16 17 20 22 23 23 23 23 23 23 23 23 23 21 21 24 26 25 27 26 26 28 26 25 25 23 24 23 23
16 16 16 17 17 13 12 7 8 12 15 17 20 22 22 21 21 20 20 21 22 24 24 22 22 21 23 23 22 22 23 22 13 21 24 26 25 27 26 25 24 24 24
15 15 15 14 12 10 10 12 15 17 19 20 21 21 22 21 20 20 19 20 22 24 26 27 27 27 26 24 22 22 22 22 22 20 19 22 18 20 20 21 23 21 18
15 15 13 11 13 14 17 18 18 19 19 20 20 21 21 21 18 18 19 21 22 23 23 25 27 28 28 27 26 26 26 24 23 22 20 19 19 17 17 19 19 20 22
14 12 13 15 16 17 17 19 18 19 20 21 21 19 18 20 19 20 21 24 25 24 22 27 29 30 31 32 30 23 23 22 17 22 21 22 20 21 21 22 24 27 26
12 13 16 15 16 17 19 18 18 19 20 20 19 19 19 19 20 19 20 22 23 21 19 17 18 22 26 29 32 31 26 22 19 15 20 19 18 17 14 16 16 18 21
Wind_Direction
295 298 301 302 304 304 303 301 304 306 313 314 311 319 335 346 5 23 22 11 358 343 315 297 300 305 305 293 290 280 260 250 247 242 239 237 237 237 233 230 225 221 218
291 295 297 298 297 296 293 293 289 286 290 285 282 287 299 336 357 15 23 23 18 14 8 349 317 306 314 302 294 276 278 275 261 251 247 245 245 241 237 233 229 226 222
293 292 294 293 295 293 288 281 277 275 272 266 266 267 273 295 308 14 48 32 37 45 33 23 13 0 346 327 301 292 277 268 275 269 263 254 247 244 237 237 235 232 227
289 288 288 289 294 290 283 276 268 269 264 253 252 258 261 273 274 316 132 82 69 49 21 14 14 6 9 360 345 318 304 288 270 270 270 268 261 248 248 248 242 239 233
293 286 286 287 285 279 274 268 265 263 258 254 253 253 254 253 257 261 228 180 55 15 360 349 341 352 358 356 356 345 315 293 299 286 278 267 266 259 254 251 247 242 237
289 281 280 281 280 272 268 264 258 257 253 250 246 250 252 251 249 245 225 242 188 6 2 12 348 330 310 317 324 336 340 310 290 308 303 268 261 259 262 263 258 242 241
311 297 286 285 282 270 266 264 261 251 244 246 243 255 257 256 248 236 219 221 215 271 315 326 325 319 313 305 296 302 319 320 310 297 291 281 265 257 246 249 257 256 241
319 315 304 294 288 278 269 261 254 248 250 233 230 247 258 247 244 231 215 211 212 188 195 295 312 314 313 309 309 295 298 300 299 290 282 281 285 279 270 257 259 261 250
326 321 315 307 299 287 273 263 256 249 247 242 228 228 239 248 251 212 221 217 204 189 211 271 295 312 311 307 313 319 313 306 292 280 265 265 279 288 274 266 256 259 253
323 318 315 311 304 293 278 274 266 257 252 252 239 233 239 266 242 249 216 224 209 228 242 253 289 297 309 306 305 323 319 332 293 272 274 256 254 272 263 259 253 253 249
325 320 318 313 308 302 290 279 276 266 260 252 244 227 213 215 214 247 253 236 225 259 250 278 287 273 304 295 300 318 320 343 324 272 270 250 248 259 268 268 276 259 249
321 319 320 317 318 318 316 326 20 51 77 165 106 57 233 203 217 235 237 235 277 284 279 279 281 288 290 292 294 323 312 337 345 343 293 240 263 268 260 253 266 267 243
316 318 326 332 25 75 84 87 80 63 48 33 32 43 21 19 120 245 236 267 272 279 283 278 286 271 265 283 283 298 310 313 289 348 351 287 270 260 259 261 268 268 286
305 316 1 31 35 26 27 27 359 10 359 32 16 7 342 315 277 251 241 267 285 279 277 282 281 273 274 274 275 285 281 272 295 292 313 303 260 250 226 283 300 295 264
284 19 349 339 352 24 15 20 9 12 354 347 333 316 293 252 243 221 230 237 255 278 276 275 281 282 278 277 269 265 265 284 294 291 266 284 259 297 299 307 291 285 296
337 342 2 49 34 27 18 4 351 354 358 348 281 263 256 253 247 242 246 248 249 259 274 274 273 272 275 275 269 265 262 272 274 250 262 262 271 289 303 303 299 277 274
348 16 23 19 7 351 348 320 315 321 298 314 291 273 266 266 267 262 263 267 267 267 270 277 274 269 268 269 267 264 260 263 263 258 262 269 276 272 272 291 298 290 266
32 21 5 354 339 324 305 296 309 309 308 304 297 288 283 281 277 277 276 272 271 271 271 275 274 271 267 269 266 264 261 260 259 259 270 275 267 270 273 268 274 285 274
356 349 332 322 325 326 317 314 318 311 302 290 285 282 283 286 286 284 282 279 276 274 271 272 273 271 267 266 266 264 260 259 261 263 267 266 265 271 273 274 267 267 272
332 329 327 320 309 310 308 311 311 302 293 288 288 287 286 286 286 286 283 279 278 275 272 270 269 269 266 262 260 263 261 256 257 260 261 262 265 267 263 265 265 263 263
313 315 316 317 322 321 316 311 305 298 298 298 295 294 290 286 282 278 276 275 274 271 269 269 269 269 266 262 255 260 261 264 261 260 261 261 262 259 258 257 252 255 256
335 336 332 328 325 326 325 308 311 307 299 296 295 296 295 292 287 282 277 270 266 269 268 266 265 265 266 264 263 260 262 262 265 260 259 260 257 258 256 251 248 252 257
335 335 334 330 328 333 328 313 307 303 295 294 296 295 294 291 288 285 281 276 271 266 262 266 269 266 267 263 261 258 256 258 261 263 260 264 260 260 256 252 251 245 248
329 328 331 335 328 319 319 315 313 304 296 297 297 294 292 293 290 286 283 283 279 272 265 259 257 262 263 262 260 257 258 262 265 262 259 264 264 257 255 251 250 249 256
329 333 332 327 323 319 322 322 318 308 302 302 299 295 291 293 288 287 286 280 279 278 272 263 259 261 262 259 258 261 249 247 253 256 256 258 262 261 260 258 259 260 258
321 327 327 327 323 320 323 326 322 312 305 304 302 298 293 287 289 292 293 293 288 286 290 277 264 265 263 259 254 248 247 243 242 252 253 248 255 253 259 250 251 250 250